Regional Weather Roundup
Issued by NWS

Home | Current Version | Previous Version | Graphics & Text | Print | Product List | Glossary On
Versions: 1 2 3 4 5 6 7 8 9 10 11 12 13 14 15 16 17 18 19 20 21 22 23 24 25 26 27 28 29 30 31 32 33 34 35 36 37 38 39 40 41 42 43 44 45 46 47 48 49 50
000
ASUS43 KMKX 220800
RWRWI

WISCONSIN REGIONAL WEATHER ROUNDUP
NATIONAL WEATHER SERVICE MILWAUKEE/SULLIVAN WI
300 AM CDT SUN OCT 22 2017

NOTE: "FAIR" INDICATES FEW OR NO CLOUDS BELOW 12,000 FEET WITH NO
SIGNIFICANT WEATHER AND/OR OBSTRUCTIONS TO VISIBILITY.

WIZ001-002-006>008-014>016-023>028-220900-
NORTHWEST WISCONSIN

CITY           SKY/WX    TMP DP  RH WIND       PRES   REMARKS
SUPERIOR ARPT  CLOUDY    50  47  88 SW7       29.77R
ASHLAND        CLOUDY    54  51  90 SW13      29.76S
HAYWARD        CLOUDY    52  48  86 SW13      29.80R
SIREN          CLOUDY    49  44  83 SW8       29.82R
CUMBERLAND     CLOUDY    46  43  87 W6        29.84R
RICE LAKE      CLOUDY    51  46  82 W8        29.83F
CHETEK         CLOUDY    52  48  87 W5        29.83F
LADYSMITH      CLOUDY    53  51  94 SW6       29.83F
EAU CLAIRE     NOT AVBL
MENOMONIE      CLOUDY    53  45  75 W7        29.87R
NEW RICHMOND   CLOUDY    49  42  79 SW7       29.86S
OSCEOLA        CLOUDY    47  44  87 SW7       29.88R
$$

WIZ003>005-009-010-017-018-220900-
NORTH CENTRAL WISCONSIN

CITY           SKY/WX    TMP DP  RH WIND       PRES   REMARKS
MANITOWISH WTR RAIN      59  59 100 S12G17    29.79S
ARBOR VITAE    LGT RAIN  59  58  95 S8        29.81S
WOODRUFF       LGT RAIN  59  58  95 S8        29.81S
RHINELANDER    LGT RAIN  59  59 100 SE3       29.82F
EAGLE RIVER    NOT AVBL
LAND O LAKES   CLOUDY    60  58  93 S8        29.83S
PHILLIPS       DRIZZLE   59  59 100 SW12G17   29.77F
TOMAHAWK       DRIZZLE   59  58  96 SE3       29.82F
MEDFORD        RAIN      59  58  96 S10       29.82R
MERRILL        RAIN      60  60 100 S5        29.83F
$$

WIZ029-030-035-036-043>047-220900-
CENTRAL WISCONSIN

CITY           SKY/WX    TMP DP  RH WIND       PRES   REMARKS
WAUSAU         CLOUDY    60  59  96 S8        29.83F
MOSINEE        CLOUDY    59  59 100 S10       29.86S
MARSHFIELD     LGT RAIN  61  58  90 S10       29.83F
STEVENS POINT  CLOUDY    60  59  97 SW10      29.86S
WAUPACA        CLOUDY    68  59  73 S7        29.86F
WAUTOMA        CLOUDY   N/A N/A N/A SW5       29.86F
WISC RAPIDS    CLOUDY    61  60  97 S5        29.85F
CAMP DOUGLAS   NOT AVBL
$$

WIZ011>013-019>022-031-037>040-048>050-220900-
NORTHEAST WISCONSIN

CITY           SKY/WX    TMP DP  RH WIND       PRES   REMARKS
ANTIGO         CLOUDY    61  58  89 S7        29.85F
SHAWANO        MOCLDY    67  58  75 S8        29.85F
OCONTO         CLOUDY    63  57  81 S6        29.88S
STURGEON BAY   PTCLDY    59  55  87 S17G23    29.90F
GREEN BAY      CLOUDY    67  59  75 S12       29.88F
MANITOWOC      CLOUDY    60  55  83 S17       29.92F
APPLETON       CLOUDY    64  54  68 S13G21    29.87S
CLINTONVILLE   CLOUDY    66  57  72 S6        29.86S
OSHKOSH        PTCLDY    66  58  75 S16       29.87S
$$

WIZ032>034-041-042-053>061-220900-
SOUTHWEST WISCONSIN

CITY           SKY/WX    TMP DP  RH WIND       PRES   REMARKS
LA CROSSE      LGT RAIN  55  54  96 W6        29.88R
SPARTA         LGT RAIN  55  55  97 W15G21    29.86R
VIROQUA        CLOUDY    54  54 100 NW8       29.87R
BOSCOBEL       CLOUDY    61  59  93 CALM      29.86F
PRAIRIE DU CHI CLOUDY    56  53  91 W9        29.88R
PLATTEVILLE    CLOUDY    63  60  92 CALM      29.87F
$$

WIZ056-057-062-063-064-067-068-220900-
SOUTH CENTRAL WISCONSIN

CITY           SKY/WX    TMP DP  RH WIND       PRES   REMARKS
REEDSBURG      CLOUDY    61  61  99 CALM      29.86F
BARABOO/DELLS  CLOUDY    63  57  79 SW9       29.87F
LONE ROCK      CLOUDY    61  61 100 SE5       29.86F
MINERAL POINT  CLOUDY    63  61  94 CALM      29.87F
MADISON        MOCLDY    67  57  70 S14G23    29.87S
MIDDLETON      CLOUDY    69  57  66 SW9       29.89R
WATERTOWN      CLOUDY    67  58  74 S14G23    29.90F
MONROE         CLOUDY    66  55  68 S14       29.89S
JANESVILLE     CLOUDY    70  55  60 S21G33    29.89F
$$

WIZ051-052-058>065-066-070>072-220900-
SOUTHEAST WISCONSIN

CITY           SKY/WX    TMP DP  RH WIND       PRES   REMARKS
MILWAUKEE      CLOUDY    69  56  62 S14       29.94F
WAUKESHA       CLOUDY    64  54  68 S9G16     29.95S
MILWAUKEE/TIMM CLOUDY    66  52  59 S8        29.95S
RACINE         CLOUDY    63  55  75 S7        29.96F
BURLINGTON     PTCLDY    67  57  71 S10G18    29.94S
KENOSHA        CLOUDY    68  55  63 S12G22    29.95F
FOND DU LAC    MOCLDY    68  55  63 S12G18    29.88F
SHEBOYGAN      CLOUDY    61  57  87 S13       29.92F
WEST BEND      CLOUDY    68  54  60 S12G18    29.93S
JUNEAU         MOCLDY    66  57  71 S12G21    29.91F
$$

LSZ147-162-220900-
LAKE SUPERIOR

STATION/POSITION TIME  TEMP    WIND        PRES    WAVE
                       AIR SEA DIR/SP/G            HT/PER
                 (UTC) (F)     (DEG/KT/KT) (MB)    (FT/S)
W MID LAKE BUOY  0650   61 52              1004.9F   1/ 4
DEVILS ISLAND    0700   56     230/ 20/ 25 1006.4R
PORT WING        0730          230/ 11/ 17 1007.8R
SAXON HARBOR     0740   59     260/  7/ 15 1007.1R
$$

LMZ867-665-643>646-220900-
LAKE MICHIGAN

STATION/POSITION TIME  TEMP    WIND        PRES    WAVE
                       AIR SEA DIR/SP/G            HT/PER
                 (UTC) (F)     (DEG/KT/KT) (MB)    (FT/S)
S GREEN BAY BUOY 0730   62 58  170/ 14/ 16 1011.9F
N MID LAKE BUOY  0650   63 58  180/ 19/ 23 1014.1R   6/ 7
NORTHPORT PIER   0740   61     160/ 11/ 20 1012.9F
KEWAUNEE LAKESHO 0730   55     180/ 14/ 16 1012.4F
SHEBOYGAN LAKESH 0700   56     180/ 19/ 20 1013.5F
PORT WASHINGTON  0730   56     200/  6/  9 1014.9F
ATWATER BUOY     0639   57 52  160/ 16/ 17 1014.2F
MILWAUKEE LAKESH 0750   58     150/ 13/ 14   N/A
S MID LAKE BUOY  0650   63 61  160/ 17/ 21 1016.1F   4/ 5
KENOSHA   LAKESH 0700   58     170/ 13/ 16 1014.6
$$

TC  - TEMPERATURE IN CELSIUS
VSB - VISIBILITY IN STATUTE MILES
WCI - WIND CHILL INDEX
HX  - HEAT INDEX




USA.gov is the U.S. government's official web portal to all federal, state and local government web resources and services.